| time (UTC) | temp F | wind direction | speed knots | gust knots | rain 1hr in | rain 24hr in | rain mn in | humidity % | barometer mb |
| 20260505125039 | 61 | 0 | 0.9 | 2.6 | 0.00 | 0.00 | 0.00 | 84 | 1012.5 |
| 20260505124607 | 60 | 0 | 0.9 | 3.5 | 0.00 | 0.00 | 0.00 | 84 | 1012.4 |
| 20260505124039 | 60 | 0 | 0.0 | 3.5 | 0.00 | 0.00 | 0.00 | 85 | 1012.3 |
| 20260505123538 | 59 | 17 | 0.9 | 3.5 | 0.00 | 0.00 | 0.00 | 85 | 1012.2 |
| 20260505123114 | 59 | 345 | 0.0 | 1.7 | 0.00 | 0.00 | 0.00 | 86 | 1012.2 |
| 20260505122538 | 58 | 0 | 0.0 | 1.7 | 0.00 | 0.00 | 0.00 | 87 | 1012.2 |
| 20260505122039 | 57 | 291 | 0.0 | 1.7 | 0.00 | 0.00 | 0.00 | 87 | 1012.2 |
| 20260505121552 | 57 | 0 | 0.0 | 1.7 | 0.00 | 0.00 | 0.00 | 87 | 1012.2 |
| 20260505121040 | 56 | 0 | 0.0 | 1.7 | 0.00 | 0.00 | 0.00 | 88 | 1012.2 |
| 20260505120539 | 56 | 249 | 0.0 | 1.7 | 0.00 | 0.00 | 0.00 | 88 | 1012.1 |
| 20260505120054 | 55 | 0 | 0.0 | 1.7 | 0.00 | 0.00 | 0.00 | 89 | 1012.1 |
| 20260505115538 | 55 | 0 | 0.0 | 2.6 | 0.00 | 0.00 | 0.00 | 89 | 1012.2 |
| 20260505115039 | 55 | 0 | 0.0 | 2.6 | 0.00 | 0.00 | 0.00 | 90 | 1012.1 |
| 20260505114600 | 54 | 0 | 0.0 | 1.7 | 0.00 | 0.00 | 0.00 | 91 | 1012.1 |
| 20260505114039 | 54 | 195 | 0.0 | 1.7 | 0.00 | 0.00 | 0.00 | 92 | 1012.1 |
| 20260505113540 | 53 | 0 | 0.0 | 1.7 | 0.00 | 0.00 | 0.00 | 93 | 1012.1 |
| 20260505113055 | 53 | 0 | 0.0 | 1.7 | 0.00 | 0.00 | 0.00 | 94 | 1012.1 |
| 20260505112539 | 52 | 195 | 0.0 | 2.6 | 0.00 | 0.00 | 0.00 | 94 | 1012.1 |
| 20260505112039 | 52 | 0 | 0.0 | 2.6 | 0.00 | 0.00 | 0.00 | 94 | 1012.1 |
| 20260505111558 | 51 | 0 | 0.0 | 1.7 | 0.00 | 0.00 | 0.00 | 94 | 1012.0 |
| 20260505111039 | 50 | 0 | 0.0 | 0.9 | 0.00 | 0.00 | 0.00 | 94 | 1012.0 |
| 20260505110539 | 50 | 0 | 0.0 | 1.7 | 0.00 | 0.00 | 0.00 | 94 | 1012.0 |
| 20260505102039 | 47 | 0 | 0.0 | 1.7 | 0.00 | 0.00 | 0.00 | 94 | 1012.0 |
| 20260505101553 | 47 | 0 | 0.0 | 1.7 | 0.00 | 0.00 | 0.00 | 94 | 1012.0 |
| 20260505101041 | 47 | 0 | 0.0 | 1.7 | 0.00 | 0.00 | 0.00 | 94 | 1011.8 |
| 20260505100540 | 47 | 158 | 0.0 | 1.7 | 0.00 | 0.00 | 0.00 | 94 | 1011.9 |
| 20260505100101 | 46 | 0 | 0.0 | 1.7 | 0.00 | 0.00 | 0.00 | 94 | 1011.9 |
| 20260505095539 | 46 | 0 | 0.0 | 1.7 | 0.00 | 0.00 | 0.00 | 94 | 1011.6 |
| 20260505095039 | 46 | 0 | 0.0 | 1.7 | 0.00 | 0.00 | 0.00 | 94 | 1011.7 |
| 20260505094552 | 46 | 158 | 0.0 | 1.7 | 0.00 | 0.00 | 0.00 | 94 | 1011.7 |
| 20260505094039 | 46 | 158 | 0.0 | 1.7 | 0.00 | 0.00 | 0.00 | 94 | 1011.9 |
| 20260505093539 | 46 | 0 | 0.0 | 1.7 | 0.00 | 0.00 | 0.00 | 94 | 1011.8 |
| 20260505093051 | 46 | 0 | 0.0 | 1.7 | 0.00 | 0.00 | 0.00 | 94 | 1011.7 |
| 20260505092542 | 46 | 158 | 0.0 | 0.9 | 0.00 | 0.00 | 0.00 | 93 | 1011.6 |
| 20260505092039 | 46 | 0 | 0.0 | 0.9 | 0.00 | 0.00 | 0.00 | 93 | 1011.7 |
| 20260505091551 | 46 | 0 | 0.0 | 0.9 | 0.00 | 0.00 | 0.00 | 93 | 1011.6 |
| 20260505091040 | 46 | 0 | 0.0 | 0.9 | 0.00 | 0.00 | 0.00 | 93 | 1011.6 |
| 20260505090539 | 46 | 158 | 0.0 | 0.0 | 0.00 | 0.00 | 0.00 | 93 | 1011.8 |
| 20260505090105 | 46 | 0 | 0.0 | 0.0 | 0.00 | 0.00 | 0.00 | 93 | 1011.8 |
| 20260505085539 | 46 | 0 | 0.0 | 0.0 | 0.00 | 0.00 | 0.00 | 93 | 1011.8 |
| 20260505085039 | 46 | 0 | 0.0 | 0.9 | 0.00 | 0.00 | 0.00 | 93 | 1011.9 |
| 20260505084550 | 46 | 0 | 0.0 | 0.9 | 0.00 | 0.00 | 0.00 | 93 | 1011.8 |
| 20260505084039 | 46 | 0 | 0.0 | 0.9 | 0.00 | 0.00 | 0.00 | 93 | 1011.7 |
| 20260505083541 | 46 | 0 | 0.0 | 0.9 | 0.00 | 0.00 | 0.00 | 93 | 1011.6 |
| 20260505083106 | 46 | 0 | 0.0 | 0.9 | 0.00 | 0.00 | 0.00 | 93 | 1011.8 |
| 20260505082539 | 46 | 0 | 0.0 | 0.9 | 0.00 | 0.00 | 0.00 | 93 | 1011.9 |
| 20260505082039 | 46 | 0 | 0.0 | 1.7 | 0.00 | 0.00 | 0.00 | 93 | 1011.8 |
| 20260505081552 | 46 | 0 | 0.0 | 1.7 | 0.00 | 0.00 | 0.00 | 93 | 1011.8 |
| 20260505081039 | 46 | 0 | 0.0 | 1.7 | 0.00 | 0.00 | 0.00 | 93 | 1012.0 |
| 20260505080539 | 47 | 0 | 0.9 | 1.7 | 0.00 | 0.00 | 0.00 | 93 | 1011.9 |
| 20260505080056 | 47 | 158 | 0.0 | 1.7 | 0.00 | 0.00 | 0.00 | 93 | 1012.0 |
| 20260505075539 | 47 | 0 | 0.0 | 1.7 | 0.00 | 0.00 | 0.00 | 93 | 1011.9 |
| 20260505075039 | 47 | 0 | 0.0 | 1.7 | 0.00 | 0.00 | 0.00 | 93 | 1012.0 |
| 20260505074549 | 46 | 158 | 0.0 | 1.7 | 0.00 | 0.00 | 0.00 | 93 | 1012.1 |
| 20260505074042 | 46 | 158 | 0.0 | 1.7 | 0.00 | 0.00 | 0.00 | 93 | 1012.0 |
| 20260505073541 | 46 | 0 | 0.0 | 1.7 | 0.00 | 0.00 | 0.00 | 93 | 1012.1 |
| 20260505073059 | 46 | 0 | 0.0 | 0.9 | 0.00 | 0.00 | 0.00 | 93 | 1012.0 |
| 20260505072542 | 46 | 0 | 0.0 | 0.9 | 0.00 | 0.00 | 0.00 | 93 | 1012.0 |
| 20260505072040 | 46 | 0 | 0.0 | 1.7 | 0.00 | 0.00 | 0.00 | 93 | 1012.1 |
| 20260505071557 | 46 | 0 | 0.0 | 1.7 | 0.00 | 0.00 | 0.00 | 93 | 1012.1 |
| 20260505071039 | 46 | 0 | 0.0 | 0.9 | 0.00 | 0.00 | 0.00 | 93 | 1012.1 |
| 20260505070543 | 46 | 0 | 0.0 | 0.9 | 0.00 | 0.00 | 0.00 | 93 | 1012.1 |
| 20260505070057 | 46 | 0 | 0.0 | 1.7 | 0.00 | 0.00 | 0.00 | 93 | 1012.0 |
| 20260505065540 | 46 | 0 | 0.0 | 1.7 | 0.00 | 0.00 | 0.00 | 93 | 1012.1 |
| 20260505065039 | 46 | 0 | 0.0 | 0.9 | 0.00 | 0.00 | 0.00 | 93 | 1012.0 |
| 20260505064551 | 46 | 0 | 0.0 | 1.7 | 0.00 | 0.00 | 0.00 | 93 | 1012.1 |
| 20260505064039 | 46 | 158 | 0.0 | 1.7 | 0.00 | 0.00 | 0.00 | 93 | 1012.2 |
| 20260505063538 | 46 | 0 | 0.0 | 1.7 | 0.00 | 0.00 | 0.00 | 93 | 1012.1 |
| 20260505063054 | 46 | 0 | 0.0 | 0.0 | 0.00 | 0.00 | 0.00 | 93 | 1012.1 |
| 20260505062538 | 46 | 0 | 0.0 | 1.7 | 0.00 | 0.00 | 0.00 | 93 | 1012.2 |
| 20260505062040 | 46 | 0 | 0.0 | 1.7 | 0.00 | 0.00 | 0.00 | 93 | 1012.2 |
| 20260505061544 | 46 | 0 | 0.0 | 1.7 | 0.00 | 0.00 | 0.00 | 93 | 1012.3 |
| 20260505061039 | 46 | 0 | 0.0 | 1.7 | 0.00 | 0.00 | 0.00 | 93 | 1012.2 |
| 20260505060539 | 46 | 0 | 0.0 | 0.9 | 0.00 | 0.00 | 0.00 | 93 | 1012.2 |
| 20260505060048 | 46 | 0 | 0.0 | 0.0 | 0.00 | 0.00 | 0.00 | 93 | 1012.3 |
| 20260505055541 | 46 | 0 | 0.0 | 0.0 | 0.00 | 0.00 | 0.00 | 93 | 1012.3 |
| 20260505055043 | 46 | 0 | 0.0 | 0.9 | 0.00 | 0.00 | 0.00 | 93 | 1012.3 |
| 20260505054557 | 46 | 0 | 0.0 | 0.9 | 0.00 | 0.00 | 0.00 | 93 | 1012.3 |
| 20260505054037 | 46 | 0 | 0.0 | 0.0 | 0.00 | 0.00 | 0.00 | 92 | 1012.3 |
| 20260505053541 | 46 | 0 | 0.0 | 0.9 | 0.00 | 0.00 | 0.00 | 92 | 1012.3 |
| 20260505053053 | 46 | 0 | 0.0 | 0.9 | 0.00 | 0.00 | 0.00 | 92 | 1012.3 |
| 20260505052536 | 46 | 0 | 0.0 | 0.9 | 0.00 | 0.00 | 0.00 | 92 | 1012.4 |
| 20260505052040 | 46 | 0 | 0.0 | 0.9 | 0.00 | 0.00 | 0.00 | 92 | 1012.3 |
| 20260505051547 | 46 | 0 | 0.0 | 0.9 | 0.00 | 0.00 | 0.00 | 92 | 1012.3 |
| 20260505051038 | 46 | 0 | 0.0 | 0.9 | 0.00 | 0.00 | 0.00 | 92 | 1012.5 |
| 20260505050538 | 46 | 0 | 0.0 | 1.7 | 0.00 | 0.00 | 0.00 | 92 | 1012.5 |
| 20260505050125 | 46 | 0 | 0.0 | 1.7 | 0.00 | 0.00 | 0.00 | 92 | 1012.6 |
| 20260505041601 | 46 | 0 | 0.0 | 0.9 | 0.00 | 0.00 | 0.00 | 92 | 1012.8 |
| 20260505041039 | 46 | 0 | 0.0 | 0.9 | 0.00 | 0.00 | 0.00 | 92 | 1012.7 |
| 20260505040540 | 46 | 0 | 0.0 | 0.0 | 0.00 | 0.00 | 0.00 | 91 | 1012.7 |
| 20260505040059 | 46 | 0 | 0.0 | 1.7 | 0.00 | 0.00 | 0.00 | 91 | 1012.7 |
| 20260505035540 | 46 | 0 | 0.0 | 1.7 | 0.00 | 0.00 | 0.00 | 91 | 1012.8 |
| 20260505035039 | 46 | 0 | 0.0 | 1.7 | 0.00 | 0.00 | 0.00 | 91 | 1012.8 |
| 20260505034548 | 46 | 0 | 0.0 | 0.9 | 0.00 | 0.00 | 0.00 | 91 | 1012.8 |
| 20260505034039 | 46 | 0 | 0.0 | 0.9 | 0.00 | 0.00 | 0.00 | 91 | 1012.8 |
| 20260505033539 | 46 | 0 | 0.0 | 0.9 | 0.00 | 0.00 | 0.00 | 91 | 1012.8 |
| 20260505033050 | 46 | 0 | 0.0 | 0.9 | 0.00 | 0.00 | 0.00 | 91 | 1012.8 |
| 20260505032539 | 46 | 0 | 0.0 | 0.0 | 0.00 | 0.00 | 0.00 | 90 | 1012.8 |
| 20260505032038 | 46 | 0 | 0.0 | 0.0 | 0.00 | 0.00 | 0.00 | 90 | 1012.9 |
| 20260505031550 | 46 | 0 | 0.0 | 0.0 | 0.00 | 0.00 | 0.00 | 90 | 1013.0 |
| 20260505031038 | 47 | 0 | 0.0 | 0.0 | 0.00 | 0.00 | 0.00 | 90 | 1013.0 |
| 20260505030539 | 47 | 0 | 0.0 | 0.0 | 0.00 | 0.00 | 0.00 | 90 | 1013.1 |
| 20260505030052 | 47 | 0 | 0.0 | 0.0 | 0.00 | 0.00 | 0.00 | 89 | 1013.0 |
| 20260505025536 | 47 | 0 | 0.0 | 1.7 | 0.00 | 0.00 | 0.00 | 89 | 1012.9 |
| 20260505025038 | 47 | 0 | 0.0 | 1.7 | 0.00 | 0.00 | 0.00 | 89 | 1013.0 |
| 20260505024550 | 47 | 0 | 0.0 | 0.9 | 0.00 | 0.00 | 0.00 | 89 | 1012.9 |
| 20260505024039 | 48 | 0 | 0.0 | 0.9 | 0.00 | 0.00 | 0.00 | 88 | 1012.9 |
| 20260505023541 | 48 | 0 | 0.0 | 1.7 | 0.00 | 0.00 | 0.00 | 88 | 1013.0 |
| 20260505023054 | 48 | 0 | 0.0 | 1.7 | 0.00 | 0.00 | 0.00 | 88 | 1012.9 |
| 20260505022539 | 49 | 0 | 0.0 | 0.0 | 0.00 | 0.00 | 0.00 | 88 | 1013.0 |
| 20260505022039 | 49 | 0 | 0.0 | 0.0 | 0.00 | 0.00 | 0.00 | 87 | 1013.0 |
| 20260505021550 | 49 | 0 | 0.0 | 0.9 | 0.00 | 0.00 | 0.00 | 87 | 1013.0 |
| 20260505021038 | 49 | 0 | 0.0 | 1.7 | 0.00 | 0.00 | 0.00 | 87 | 1013.0 |
| 20260505020539 | 50 | 0 | 0.0 | 2.6 | 0.00 | 0.00 | 0.00 | 87 | 1013.0 |
| 20260505020050 | 50 | 56 | 0.0 | 2.6 | 0.00 | 0.00 | 0.00 | 87 | 1013.0 |
| 20260505015539 | 50 | 56 | 0.0 | 2.6 | 0.00 | 0.00 | 0.00 | 87 | 1013.0 |
| 20260505015039 | 50 | 17 | 0.0 | 1.7 | 0.00 | 0.00 | 0.00 | 87 | 1012.9 |
| 20260505014604 | 50 | 20 | 0.9 | 2.6 | 0.00 | 0.00 | 0.00 | 87 | 1012.9 |
| 20260505014042 | 50 | 322 | 0.9 | 3.5 | 0.00 | 0.00 | 0.00 | 87 | 1012.8 |
| 20260505013538 | 50 | 343 | 0.9 | 3.5 | 0.00 | 0.00 | 0.00 | 87 | 1012.7 |
| 20260505013051 | 50 | 348 | 0.9 | 2.6 | 0.00 | 0.00 | 0.00 | 87 | 1012.7 |
| 20260505012539 | 50 | 333 | 0.9 | 2.6 | 0.00 | 0.00 | 0.00 | 86 | 1012.5 |
| 20260505012039 | 50 | 354 | 0.9 | 2.6 | 0.00 | 0.00 | 0.00 | 86 | 1012.4 |
| 20260505011549 | 50 | 295 | 0.9 | 2.6 | 0.00 | 0.00 | 0.00 | 86 | 1012.4 |
| 20260505011039 | 50 | 220 | 0.9 | 3.5 | 0.00 | 0.00 | 0.00 | 86 | 1012.3 |
| 20260505010539 | 50 | 8 | 0.9 | 3.5 | 0.00 | 0.00 | 0.00 | 86 | 1012.2 |
| 20260505010049 | 50 | 344 | 0.9 | 3.5 | 0.00 | 0.00 | 0.00 | 85 | 1012.1 |
| 20260505005539 | 51 | 110 | 0.9 | 2.6 | 0.00 | 0.00 | 0.00 | 85 | 1012.1 |
| 20260505005039 | 51 | 181 | 0.9 | 2.6 | 0.00 | 0.00 | 0.00 | 85 | 1011.9 |
| 20260505004550 | 51 | 359 | 0.9 | 3.5 | 0.00 | 0.00 | 0.00 | 85 | 1011.9 |
| 20260505004038 | 51 | 360 | 0.9 | 3.5 | 0.00 | 0.00 | 0.00 | 84 | 1011.8 |
| 20260505003535 | 51 | 359 | 0.9 | 4.3 | 0.00 | 0.00 | 0.00 | 84 | 1011.6 |
| 20260505003054 | 51 | 10 | 0.9 | 4.3 | 0.00 | 0.00 | 0.00 | 84 | 1011.5 |
| 20260505002542 | 51 | 29 | 0.9 | 4.3 | 0.00 | 0.00 | 0.00 | 84 | 1011.5 |
| 20260505002039 | 51 | 6 | 0.9 | 2.6 | 0.00 | 0.00 | 0.00 | 83 | 1011.3 |
| 20260505001602 | 51 | 313 | 0.9 | 2.6 | 0.00 | 0.00 | 0.00 | 83 | 1011.4 |
| 20260505001040 | 51 | 0 | 0.9 | 2.6 | 0.00 | 0.00 | 0.00 | 83 | 1011.3 |
| 20260505000539 | 51 | 70 | 0.9 | 2.6 | 0.00 | 0.00 | 0.00 | 82 | 1011.4 |
| 20260505000113 | 51 | 356 | 0.9 | 3.5 | 0.00 | 0.00 | 0.00 | 82 | 1011.1 |
| 20260504235539 | 52 | 355 | 0.9 | 3.5 | 0.00 | 0.00 | 0.00 | 81 | 1011.2 |
| 20260504235040 | 52 | 337 | 0.9 | 3.5 | 0.00 | 0.00 | 0.00 | 81 | 1011.1 |
| 20260504234605 | 52 | 12 | 0.9 | 3.5 | 0.00 | 0.00 | 0.00 | 80 | 1011.2 |
| 20260504234039 | 52 | 179 | 0.9 | 2.6 | 0.00 | 0.00 | 0.00 | 80 | 1011.1 |
| 20260504233536 | 52 | 338 | 0.9 | 2.6 | 0.00 | 0.00 | 0.00 | 80 | 1011.1 |
| 20260504233050 | 52 | 335 | 0.9 | 3.5 | 0.00 | 0.00 | 0.00 | 80 | 1011.0 |
| 20260504232536 | 53 | 6 | 0.9 | 3.5 | 0.00 | 0.00 | 0.00 | 79 | 1010.9 |
| 20260504232038 | 53 | 8 | 0.9 | 4.3 | 0.00 | 0.00 | 0.00 | 79 | 1010.9 |
| 20260504231553 | 53 | 16 | 0.9 | 4.3 | 0.00 | 0.00 | 0.00 | 80 | 1010.8 |
| 20260504231038 | 53 | 342 | 0.9 | 3.5 | 0.00 | 0.00 | 0.00 | 79 | 1010.9 |
| 20260504230539 | 53 | 66 | 0.9 | 3.5 | 0.00 | 0.00 | 0.00 | 79 | 1010.9 |
| 20260504230053 | 53 | 39 | 0.9 | 4.3 | 0.00 | 0.00 | 0.00 | 78 | 1010.9 |
| 20260504225538 | 53 | 30 | 0.9 | 4.3 | 0.00 | 0.00 | 0.00 | 78 | 1010.9 |
| 20260504225040 | 54 | 3 | 1.7 | 4.3 | 0.00 | 0.00 | 0.00 | 77 | 1010.8 |
| 20260504224605 | 54 | 8 | 1.7 | 4.3 | 0.00 | 0.00 | 0.00 | 77 | 1010.9 |
| 20260504224039 | 54 | 1 | 0.9 | 5.2 | 0.00 | 0.00 | 0.00 | 76 | 1010.8 |
| 20260504223541 | 55 | 188 | 1.7 | 5.2 | 0.00 | 0.00 | 0.00 | 75 | 1010.8 |
| 20260504223047 | 55 | 301 | 0.9 | 3.5 | 0.00 | 0.00 | 0.00 | 75 | 1010.9 |
| 20260504222539 | 55 | 345 | 0.9 | 3.5 | 0.00 | 0.00 | 0.00 | 74 | 1010.8 |
| 20260504222038 | 55 | 4 | 1.7 | 3.5 | 0.00 | 0.00 | 0.00 | 73 | 1010.8 |
| 20260504221547 | 56 | 32 | 0.9 | 3.5 | 0.00 | 0.00 | 0.00 | 73 | 1010.7 |
| 20260504221039 | 56 | 345 | 0.9 | 4.3 | 0.00 | 0.00 | 0.00 | 72 | 1010.8 |
| 20260504220542 | 57 | 333 | 0.9 | 4.3 | 0.00 | 0.00 | 0.00 | 71 | 1010.7 |
| 20260504220045 | 57 | 224 | 0.9 | 4.3 | 0.00 | 0.00 | 0.00 | 70 | 1010.6 |
| 20260504215539 | 57 | 154 | 0.9 | 3.5 | 0.00 | 0.00 | 0.00 | 70 | 1010.7 |
| 20260504215038 | 57 | 24 | 1.7 | 5.2 | 0.00 | 0.00 | 0.00 | 70 | 1010.7 |
| 20260504214548 | 58 | 4 | 0.9 | 5.2 | 0.00 | 0.00 | 0.00 | 68 | 1010.8 |
| 20260504214038 | 58 | 12 | 0.9 | 5.2 | 0.00 | 0.00 | 0.00 | 67 | 1010.9 |
| 20260504213539 | 58 | 11 | 0.9 | 3.5 | 0.00 | 0.00 | 0.00 | 69 | 1010.8 |
| 20260504213109 | 58 | 13 | 0.9 | 5.2 | 0.00 | 0.00 | 0.00 | 69 | 1010.8 |
| 20260504212539 | 58 | 10 | 1.7 | 7.0 | 0.00 | 0.00 | 0.00 | 69 | 1010.8 |
| 20260504212042 | 58 | 285 | 0.9 | 7.0 | 0.00 | 0.00 | 0.00 | 68 | 1010.8 |
| 20260504211549 | 59 | 333 | 0.9 | 5.2 | 0.00 | 0.00 | 0.00 | 68 | 1010.9 |
| 20260504211039 | 59 | 9 | 1.7 | 3.5 | 0.00 | 0.00 | 0.00 | 66 | 1010.9 |
| 20260504210541 | 59 | 357 | 1.7 | 3.5 | 0.00 | 0.00 | 0.00 | 66 | 1010.8 |
| 20260504210051 | 59 | 14 | 1.7 | 5.2 | 0.00 | 0.00 | 0.00 | 66 | 1010.9 |
| 20260504205539 | 59 | 50 | 1.7 | 5.2 | 0.00 | 0.00 | 0.00 | 66 | 1010.8 |
| 20260504205041 | 60 | 16 | 0.9 | 5.2 | 0.00 | 0.00 | 0.00 | 64 | 1010.7 |
| 20260504204553 | 60 | 346 | 0.9 | 4.3 | 0.00 | 0.00 | 0.00 | 65 | 1010.6 |
| 20260504204038 | 60 | 14 | 0.9 | 4.3 | 0.00 | 0.00 | 0.00 | 65 | 1010.6 |
| 20260504203539 | 60 | 7 | 0.9 | 4.3 | 0.00 | 0.00 | 0.00 | 65 | 1010.4 |
| 20260504203117 | 60 | 10 | 1.7 | 4.3 | 0.00 | 0.00 | 0.00 | 64 | 1010.5 |
| 20260504202539 | 60 | 264 | 1.7 | 3.5 | 0.00 | 0.00 | 0.00 | 64 | 1010.4 |
| 20260504202038 | 61 | 337 | 1.7 | 7.8 | 0.00 | 0.00 | 0.00 | 63 | 1010.4 |
| 20260504201552 | 61 | 345 | 1.7 | 7.8 | 0.00 | 0.00 | 0.00 | 63 | 1010.6 |
| 20260504201039 | 61 | 353 | 1.7 | 6.1 | 0.00 | 0.00 | 0.00 | 63 | 1010.5 |
| 20260504200538 | 62 | 345 | 1.7 | 6.1 | 0.00 | 0.00 | 0.00 | 61 | 1010.6 |
| 20260504200051 | 62 | 29 | 0.9 | 5.2 | 0.00 | 0.00 | 0.00 | 61 | 1010.6 |
| 20260504195539 | 63 | 352 | 0.9 | 4.3 | 0.00 | 0.00 | 0.00 | 62 | 1010.5 |
| 20260504195043 | 63 | 12 | 0.9 | 5.2 | 0.00 | 0.00 | 0.00 | 59 | 1010.5 |
| 20260504194559 | 63 | 55 | 0.9 | 5.2 | 0.00 | 0.00 | 0.00 | 60 | 1010.4 |
| 20260504194041 | 63 | 351 | 1.7 | 7.0 | 0.00 | 0.00 | 0.00 | 57 | 1010.6 |
| 20260504193540 | 64 | 29 | 1.7 | 7.0 | 0.00 | 0.00 | 0.00 | 55 | 1010.7 |
| 20260504193052 | 64 | 357 | 1.7 | 7.0 | 0.00 | 0.00 | 0.00 | 54 | 1010.7 |
| 20260504192538 | 64 | 4 | 1.7 | 5.2 | 0.00 | 0.00 | 0.00 | 55 | 1010.8 |
| 20260504192038 | 64 | 1 | 1.7 | 7.0 | 0.00 | 0.00 | 0.00 | 55 | 1010.6 |
| 20260504191547 | 64 | 10 | 1.7 | 7.0 | 0.00 | 0.00 | 0.00 | 54 | 1010.7 |
| 20260504191039 | 64 | 3 | 2.6 | 7.0 | 0.00 | 0.00 | 0.00 | 56 | 1010.8 |
| 20260504190541 | 65 | 337 | 1.7 | 6.1 | 0.00 | 0.00 | 0.00 | 55 | 1010.9 |
| 20260504190105 | 64 | 324 | 0.9 | 8.7 | 0.00 | 0.00 | 0.00 | 57 | 1010.8 |
| 20260504185539 | 64 | 6 | 1.7 | 8.7 | 0.00 | 0.00 | 0.00 | 57 | 1010.8 |
| 20260504185040 | 65 | 347 | 1.7 | 8.7 | 0.00 | 0.00 | 0.00 | 56 | 1010.8 |
| 20260504184559 | 66 | 353 | 1.7 | 4.3 | 0.00 | 0.00 | 0.00 | 58 | 1010.9 |
| 20260504184039 | 65 | 332 | 1.7 | 4.3 | 0.00 | 0.00 | 0.00 | 57 | 1011.1 |
| 20260504183542 | 65 | 16 | 1.7 | 4.3 | 0.00 | 0.00 | 0.00 | 57 | 1011.0 |
| 20260504183048 | 65 | 36 | 1.7 | 3.5 | 0.00 | 0.00 | 0.00 | 57 | 1011.0 |
| 20260504182542 | 65 | 338 | 0.9 | 3.5 | 0.00 | 0.00 | 0.00 | 59 | 1011.1 |
| 20260504182039 | 65 | 14 | 1.7 | 3.5 | 0.00 | 0.00 | 0.00 | 61 | 1011.0 |
| 20260504181549 | 65 | 359 | 1.7 | 7.0 | 0.00 | 0.00 | 0.00 | 60 | 1010.9 |
| 20260504181039 | 65 | 30 | 1.7 | 7.0 | 0.00 | 0.00 | 0.00 | 57 | 1010.9 |
| 20260504180541 | 65 | 8 | 1.7 | 7.0 | 0.00 | 0.00 | 0.00 | 59 | 1011.0 |
| 20260504180051 | 65 | 335 | 1.7 | 4.3 | 0.00 | 0.00 | 0.00 | 59 | 1011.0 |
| 20260504175538 | 66 | 31 | 0.9 | 4.3 | 0.00 | 0.00 | 0.00 | 59 | 1010.8 |
| 20260504175040 | 66 | 32 | 1.7 | 4.3 | 0.00 | 0.00 | 0.00 | 59 | 1010.8 |
| 20260504174601 | 66 | 26 | 0.9 | 3.5 | 0.00 | 0.00 | 0.00 | 59 | 1010.9 |
| 20260504174039 | 66 | 26 | 1.7 | 3.5 | 0.00 | 0.00 | 0.00 | 61 | 1010.9 |
| 20260504173539 | 66 | 14 | 1.7 | 3.5 | 0.00 | 0.00 | 0.00 | 58 | 1010.9 |
| 20260504173056 | 66 | 348 | 1.7 | 6.1 | 0.00 | 0.00 | 0.00 | 58 | 1010.9 |
| 20260504172539 | 65 | 354 | 1.7 | 6.1 | 0.00 | 0.00 | 0.00 | 59 | 1011.0 |
| 20260504172041 | 65 | 345 | 1.7 | 4.3 | 0.00 | 0.00 | 0.00 | 61 | 1011.0 |
| 20260504171551 | 65 | 14 | 1.7 | 3.5 | 0.00 | 0.00 | 0.00 | 60 | 1011.0 |
| 20260504171039 | 65 | 20 | 1.7 | 3.5 | 0.00 | 0.00 | 0.00 | 64 | 1011.0 |
| 20260504170539 | 65 | 359 | 1.7 | 3.5 | 0.00 | 0.00 | 0.00 | 60 | 1011.1 |
| 20260504151038 | 65 | 11 | 0.9 | 2.6 | 0.00 | 0.00 | 0.00 | 59 | 1011.8 |
| 20260504150536 | 65 | 355 | 0.9 | 6.1 | 0.00 | 0.00 | 0.00 | 57 | 1011.9 |
| 20260504141038 | 63 | 103 | 0.9 | 3.5 | 0.00 | 0.00 | 0.00 | 61 | 1012.1 |
| 20260504140536 | 63 | 1 | 0.9 | 3.5 | 0.00 | 0.00 | 0.00 | 61 | 1012.1 |
| 20260504140106 | 63 | 359 | 0.9 | 3.5 | 0.00 | 0.00 | 0.00 | 60 | 1012.2 |